Weather in Kalnyk

Ukraine / Vinnytsia Region     49°02′15″N   29°23′13″E
temp.,
°C
wind,
m/s
gust,
m/s
humid.,
%
clouds,
%
prec.,
mm/h
press.,
hPa
HPBL,
m
12 may, wed
wed1200:00+12ene389715 0.0 1016193
03:00+9ene389749 0.0 1016212
06:00+9e510853 0.0 1016354
09:00+10e68711 0.0 1017842
12:00+11ene6762100 0.0 10161445
15:00+12e5660100 0.1 10151639
18:00+11ene3673100 0.1 1014654
21:00+9ene2275100 0.1 101343
13 may, thu
thu1300:00+6e22896 0.0 101325
03:00+5se229243 0.0 101217
06:00+5se339331 0.0 101160
09:00+11se577435 0.0 1011592
12:00+9sse6108498 0.1 1011596
15:00+14sse71170100 0.1 10091210
18:00+15sse61174100 0.0 10081115
21:00+11se4129295 0.6 1009523
14 may, fri
fri1400:00+11sse5148388 0.0 1008583
03:00+9se3989100 0.9 1008261
06:00+9sse388588 0.1 1008226
09:00+12s3480100 0.1 1008361
12:00+13ssw3488100 0.5 1008397
15:00+15sw338173 0.5 1008464
18:00+13w348829 0.1 1008211
21:00+11wsw2390100 0.1 100982
15 may, sat
sat1500:00+11w2388100 0.0 101064
03:00+11wnw3693100 0.0 1010154
06:00+11wnw239398 0.0 101191
09:00+13nw238197 0.0 1012361
12:00+17w236027 0.0 10121345
15:00+19wnw335238 0.3 10111765
18:00+19sse115181 0.0 10111477
21:00+15e3568100 0.0 101191
16 may, sun
sun1600:00+14e37765 0.0 1011142
03:00+11e498514 0.0 1011165
06:00+11e41192100 0.0 1011219
09:00+16e61177100 0.0 1011539
12:00+20ese796799 0.1 10101246
15:00+20ese6867100 2.1 10091360
18:00+18ene51080100 2.4 1007495
21:00+16ene71390100 5.3 1006415